EW3411 Weather Reports


time (UTC)temp
F
wind
direction
speed
knots
gust
knots
rain 1hr
in
rain 24hr
in
rain mn
in
humidity
%
barometer
mb
20260504212519 47 351 0.0 3.5 0.00 0.07 0.07 89 1005.0
20260504212019 47 351 0.0 4.3 0.00 0.07 0.07 89 1005.0
20260504211556 47 334 2.6 4.3 0.00 0.07 0.07 89 1005.0
20260504211015 46 295 0.9 4.3 0.00 0.07 0.07 90 1004.9
20260504210514 46 307 0.9 3.5 0.00 0.07 0.07 90 1004.8
20260504210110 46 135 0.9 3.5 0.00 0.07 0.07 90 1004.9
20260504205517 46 339 0.9 4.3 0.00 0.07 0.07 90 1004.8
20260504205015 46 339 0.9 4.3 0.00 0.07 0.07 90 1004.7
20260504204630 46 345 1.7 4.3 0.00 0.07 0.07 91 1004.9
20260504204019 45 345 1.7 4.3 0.00 0.07 0.07 91 1004.9
20260504203518 45 352 1.7 5.2 0.00 0.07 0.07 91 1004.9
20260504203136 45 332 3.5 7.8 0.00 0.07 0.07 92 1004.9
20260504202517 45 357 2.6 7.8 0.00 0.07 0.07 92 1004.8
20260504202016 45 343 3.5 6.1 0.00 0.07 0.07 92 1004.9
20260504201557 45 351 3.5 6.1 0.00 0.07 0.07 91 1004.8
20260504201015 46 315 2.6 5.2 0.00 0.07 0.07 91 1004.8
20260504200518 45 295 1.7 5.2 0.00 0.07 0.07 91 1004.7
20260504200111 45 347 1.7 5.2 0.00 0.07 0.07 91 1004.7
20260504195518 45 274 0.9 5.2 0.00 0.09 0.07 91 1004.5
20260504195017 45 299 2.6 7.0 0.00 0.09 0.07 92 1004.6
20260504194610 45 339 2.6 7.0 0.00 0.09 0.07 91 1004.7
20260504194018 45 309 4.3 7.8 0.00 0.09 0.07 91 1004.7
20260504193519 45 331 2.6 5.2 0.00 0.09 0.07 91 1004.7
20260504193109 45 309 1.7 5.2 0.00 0.09 0.07 90 1004.6
20260504192520 45 295 2.6 7.0 0.00 0.09 0.07 90 1004.6
20260504192018 45 295 1.7 7.8 0.00 0.09 0.07 90 1004.7
20260504191614 45 295 3.5 7.8 0.00 0.09 0.07 90 1004.6
20260504191019 45 295 2.6 7.0 0.00 0.09 0.07 89 1004.5
20260504190517 45 313 1.7 4.3 0.00 0.09 0.07 89 1004.4
20260504190118 45 310 1.7 4.3 0.00 0.09 0.07 89 1004.5
20260504185517 45 282 1.7 4.3 0.00 0.09 0.07 89 1004.4
20260504185021 45 328 1.7 4.3 0.00 0.09 0.07 89 1004.4
20260504184614 45 326 2.6 5.2 0.00 0.09 0.07 89 1004.5
20260504184024 45 295 1.7 7.0 0.00 0.09 0.07 88 1004.5
20260504183517 45 307 3.5 7.0 0.00 0.09 0.07 88 1004.5
20260504183110 45 328 1.7 4.3 0.00 0.09 0.07 89 1004.4
20260504182519 45 304 1.7 4.3 0.00 0.09 0.07 88 1004.4
20260504182017 45 261 1.7 5.2 0.00 0.09 0.07 88 1004.5
20260504181610 45 259 2.6 9.6 0.00 0.09 0.07 87 1004.6
20260504181017 45 295 4.3 10.4 0.01 0.09 0.07 86 1004.5
20260504180518 46 312 5.2 10.4 0.01 0.09 0.07 88 1004.6
20260504180128 46 295 1.7 7.0 0.02 0.09 0.07 87 1004.5
20260504175518 45 312 1.7 5.2 0.02 0.11 0.07 88 1004.6
20260504175017 45 309 1.7 5.2 0.04 0.11 0.07 89 1004.8
20260504174602 45 333 2.6 5.2 0.06 0.11 0.07 87 1004.9
20260504174012 45 295 1.7 4.3 0.06 0.11 0.07 87 1005.0
20260504173518 45 239 2.6 7.0 0.06 0.11 0.07 88 1005.0
20260504173025 45 327 4.3 7.0 0.07 0.11 0.07 87 1004.9
20260504172515 46 258 1.7 8.7 0.07 0.11 0.07 88 1004.8
20260504172018 46 324 3.5 8.7 0.07 0.11 0.07 88 1004.9
20260504171612 46 338 4.3 8.7 0.07 0.11 0.07 87 1004.9
20260504171024 46 243 3.5 8.7 0.06 0.09 0.06 87 1004.8
20260504170519 46 318 2.6 8.7 0.06 0.09 0.06 87 1005.0
20260504160112 53 197 6.1 12.2 0.00 0.07 0.00 54 1003.4
20260504151019 52 206 2.6 7.0 0.00 0.09 0.00 59 1003.8
20260504150521 52 257 1.7 7.0 0.00 0.09 0.00 57 1003.8
20260504150113 51 199 2.6 7.0 0.00 0.09 0.00 57 1004.0
20260504141020 49 318 1.7 11.3 0.00 0.16 0.00 58 1004.8
20260504140521 49 254 2.6 11.3 0.00 0.16 0.00 56 1004.7
20260504140110 48 220 4.3 8.7 0.00 0.16 0.00 58 1004.8
20260504130517 45 322 6.1 13.9 0.00 0.24 0.00 58 1005.7
20260504110511 39 345 1.7 6.1 0.00 0.44 0.00 68 1006.1
20260504100511 37 326 1.7 4.3 0.00 0.51 0.00 75 1005.7
20260504082006 38 295 7.8 11.3 0.00 0.63 0.00 73 1004.8
20260504081539 38 304 7.8 14.8 0.00 0.63 0.00 73 1004.8
20260504081011 38 321 9.6 14.8 0.00 0.63 0.00 74 1004.8
20260504080512 38 303 8.7 13.0 0.00 0.63 0.00 75 1004.8
20260504050518 38 303 5.2 7.8 0.00 0.65 0.00 81 1004.1
20260504045514 36 337 1.7 4.3 0.00 0.66 0.00 87 1004.2
20260504045011 36 234 0.0 1.7 0.00 0.66 0.00 86 1004.0
20260504044542 37 318 0.0 0.9 0.00 0.66 0.00 83 1004.0
20260504044013 38 318 0.0 0.9 0.00 0.66 0.00 84 1003.9
20260504043515 39 318 0.0 2.6 0.00 0.66 0.00 81 1004.0
20260504043048 39 318 1.7 3.5 0.00 0.66 0.00 79 1004.0
20260504042516 40 316 0.9 4.3 0.00 0.66 0.00 79 1004.1
20260504042018 40 321 2.6 5.2 0.00 0.66 0.00 77 1004.2
20260504041548 40 309 3.5 7.0 0.00 0.66 0.00 75 1004.2
20260504041019 40 299 4.3 7.0 0.00 0.66 0.00 75 1004.2
20260504040518 40 302 1.7 3.5 0.00 0.66 0.00 77 1004.2
20260504040025 41 258 0.9 5.2 0.00 0.66 0.00 78 1003.9
20260504035517 41 317 2.6 7.0 0.00 0.66 0.66 73 1004.0
20260504035016 42 324 3.5 7.0 0.00 0.66 0.66 72 1004.0
20260504034553 42 318 3.5 7.8 0.00 0.66 0.66 72 1003.9
20260504034016 42 321 4.3 7.8 0.00 0.66 0.66 71 1003.9
20260504033509 42 307 5.2 8.7 0.00 0.66 0.66 69 1003.8
20260504033046 42 331 4.3 10.4 0.00 0.66 0.66 69 1003.8
20260504032518 42 299 6.1 10.4 0.00 0.66 0.66 67 1003.8
20260504032018 42 295 7.0 13.9 0.00 0.66 0.66 67 1003.7
20260504031528 42 313 6.1 13.9 0.00 0.66 0.66 67 1003.6
20260504031010 43 305 7.8 13.9 0.00 0.66 0.66 67 1003.6
20260504030516 43 307 8.7 13.9 0.00 0.66 0.66 67 1003.5
20260504030051 43 326 8.7 13.0 0.00 0.66 0.66 69 1003.6
20260504025517 43 323 7.8 12.2 0.00 0.68 0.66 68 1003.7
20260504025016 43 331 6.1 9.6 0.00 0.68 0.66 69 1003.5
20260504024528 43 327 5.2 10.4 0.00 0.68 0.66 69 1003.6
20260504024019 43 331 7.0 10.4 0.00 0.68 0.66 70 1003.5
20260504023514 43 329 7.0 13.0 0.00 0.68 0.66 68 1003.5
20260504023045 43 327 7.0 14.8 0.00 0.68 0.66 69 1003.5
20260504022516 43 306 8.7 14.8 0.00 0.68 0.66 70 1003.4
20260504022017 43 327 8.7 13.9 0.00 0.68 0.66 70 1003.3
20260504021528 43 322 7.0 13.9 0.00 0.68 0.66 66 1003.3
20260504021008 43 334 10.4 13.0 0.00 0.68 0.66 69 1003.2
20260504020517 43 336 8.7 13.9 0.00 0.68 0.66 68 1003.3
20260504020046 44 327 7.0 14.8 0.00 0.68 0.66 68 1003.4
20260504015519 44 317 10.4 14.8 0.00 0.70 0.66 66 1003.3
20260504015017 44 321 9.6 14.8 0.00 0.70 0.66 66 1003.2
20260504014548 44 317 8.7 13.9 0.00 0.70 0.66 67 1003.2
20260504014017 44 323 7.8 13.9 0.00 0.70 0.66 68 1003.1
20260504013516 44 306 8.7 13.9 0.00 0.70 0.66 66 1003.1
20260504013108 44 331 9.6 13.9 0.00 0.70 0.66 66 1003.1
20260504012518 44 345 9.6 17.4 0.00 0.70 0.66 66 1003.1
20260504012008 44 312 8.7 17.4 0.00 0.70 0.66 66 1003.1
20260504011548 44 309 10.4 16.5 0.00 0.70 0.66 67 1003.0
20260504011010 44 336 9.6 16.5 0.00 0.70 0.66 67 1002.9
20260504010516 44 302 8.7 16.5 0.00 0.70 0.66 67 1002.8
20260504010055 44 345 9.6 15.6 0.00 0.70 0.66 67 1002.8
20260504005518 44 341 10.4 15.6 0.00 0.70 0.66 68 1002.7
20260504005018 44 311 10.4 13.9 0.00 0.70 0.66 72 1002.8
20260504004550 44 1 6.1 10.4 0.00 0.70 0.66 76 1002.8
20260504004017 44 36 1.7 11.3 0.00 0.70 0.66 86 1002.8
20260504003517 42 337 5.2 11.3 0.00 0.70 0.66 84 1002.6
20260504003047 42 305 0.0 0.0 0.00 0.70 0.66 94 1002.6
20260504002515 42 305 0.0 0.0 0.00 0.70 0.66 94 1002.6
20260504002015 43 305 0.0 0.0 0.00 0.70 0.66 93 1002.5
20260504001549 43 305 0.0 0.0 0.00 0.70 0.66 93 1002.5
20260504001016 43 305 0.0 2.6 0.00 0.70 0.66 93 1002.2
20260504000518 43 322 0.9 2.6 0.00 0.70 0.66 92 1002.2
20260504000106 44 322 0.0 3.5 0.00 0.70 0.66 91 1002.2
20260503235515 44 322 0.9 3.5 0.00 0.70 0.66 91 1002.1
20260503235018 44 322 0.9 3.5 0.00 0.70 0.66 90 1002.1
20260503234549 44 320 2.6 4.3 0.00 0.70 0.66 91 1001.9
20260503234018 44 319 2.6 4.3 0.00 0.70 0.66 90 1001.7
20260503233516 44 319 2.6 4.3 0.00 0.70 0.66 90 1001.7
20260503233052 45 322 0.9 3.5 0.00 0.70 0.66 89 1001.7
20260503232517 45 308 0.0 3.5 0.00 0.70 0.66 88 1001.8
20260503232017 45 308 1.7 3.5 0.00 0.70 0.66 89 1001.8
20260503231554 45 290 0.9 2.6 0.00 0.70 0.66 89 1001.7
20260503231019 45 306 0.0 2.6 0.00 0.70 0.66 90 1001.6
20260503230519 45 316 0.0 1.7 0.00 0.70 0.66 91 1001.6
20260503230052 45 328 0.0 1.7 0.00 0.70 0.66 91 1001.5
20260503225521 45 328 0.0 3.5 0.00 0.70 0.66 90 1001.5
20260503225017 45 328 0.0 3.5 0.00 0.70 0.66 89 1001.6
20260503224558 44 318 0.9 3.5 0.00 0.70 0.66 88 1001.6
20260503224020 45 267 0.9 4.3 0.00 0.70 0.66 89 1001.6
20260503223511 45 344 1.7 4.3 0.00 0.70 0.66 88 1001.6
20260503223050 45 338 1.7 3.5 0.00 0.70 0.66 88 1001.6
20260503222517 45 2 0.0 4.3 0.00 0.70 0.66 89 1001.6
20260503222015 44 340 1.7 4.3 0.00 0.70 0.66 87 1001.6
20260503221559 44 327 1.7 3.5 0.00 0.70 0.66 89 1001.6
20260503221011 44 340 0.0 1.7 0.00 0.70 0.66 89 1001.6
20260503220516 44 340 0.0 2.6 0.00 0.70 0.66 89 1001.7
20260503220052 44 327 0.9 3.5 0.00 0.70 0.66 89 1001.7
20260503215516 44 343 0.9 4.3 0.00 0.71 0.66 89 1001.7
20260503215019 44 325 0.9 7.8 0.00 0.71 0.66 89 1001.6
20260503214551 44 322 3.5 8.7 0.00 0.71 0.66 87 1001.8
20260503214024 44 351 3.5 8.7 0.00 0.71 0.66 87 1001.9
20260503213518 43 328 4.3 8.7 0.00 0.71 0.66 88 1001.9
20260503213054 43 344 4.3 8.7 0.00 0.71 0.66 88 1002.1